Flag for Canada Weather past 2 weeks in Vancouver, British Columbia, Canada

59 °F


Feels Like: 59 °F
Forecast: 53 / 65 °F
Wind: 2 mph from North

Location: Vancouver International Airport

Current Time: Oct 8, 2015 at 11:59:34 AM

Latest Report: Oct 8, 2015 at 11:00 AM

Visibility: 15 mi

Pressure: 30.12 "Hg

Humidity: 88%

Dew point: 55 °F

Location of VancouverLocation

Historic Weather in Vancouver — Graph


Vancouver temperature yesterday

Maximum temperature yesterday: 59 °F (at 2:00 PM)
Minimum temperature yesterday: 55 °F (at 1:00 AM)
Average temperature yesterday: 57 °F

Past Weeks' High & Low Weather Summary

High63 °F (Sep 23, 1:00 PM)100% (Sep 25, 10:00 PM)30.24 "Hg (Sep 25, 10:00 PM)
Low43 °F (Sep 27, 5:00 AM)45% (Sep 23, 3:00 PM)29.87 "Hg (Oct 5, 7:00 PM)
Average55 °F86%30.04 "Hg
* Reported Sep 23 10:00 AM — Oct 8 10:00 AM, Vancouver, Weather by CustomWeather, © 2015

Note: Actual official high and low records may vary slightly from our data, if they occured in-between our weather recording intervals... More about our weather records


Vancouver weather history for previous 24 hours

Time TempWeatherWind HumidityBarometerVisibility
10:00 AM
Thu, Oct 8
57 °FMostly cloudy.No wind94%30.13 "Hg15 mi
9:00 AM57 °FMostly cloudy.2 mph94%30.13 "Hg15 mi
8:00 AM57 °FMostly cloudy.6 mph94%30.12 "Hg20 mi
7:00 AM57 °FOvercast.5 mph94%30.12 "Hg20 mi
6:00 AM55 °FPassing clouds.3 mph100%30.15 "Hg20 mi
5:00 AM57 °FPassing clouds.7 mph94%30.16 "Hg20 mi
4:00 AM57 °FPartly cloudy.7 mph94%30.16 "Hg20 mi
3:00 AM59 °FMostly cloudy.6 mph88%30.16 "Hg20 mi
2:00 AM59 °FOvercast.6 mph88%30.16 "Hg20 mi
1:00 AM57 °FMostly cloudy.5 mph94%30.18 "Hg20 mi
12:00 AM59 °FMostly cloudy.5 mph88%30.18 "Hg15 mi
11:00 PM
Wed, Oct 7
59 °FMostly cloudy.7 mph94%30.18 "Hg15 mi
10:00 PM59 °FMostly cloudy.8 mph94%30.17 "Hg10 mi
9:00 PM57 °FMostly cloudy.9 mph100%30.16 "Hg7 mi
8:00 PM57 °FLight rain. Fog.8 mph94%30.16 "Hg2 mi
7:00 PM57 °FLight rain. Fog.9 mph94%30.14 "Hg1 mi
6:00 PM57 °FLight rain. Fog.9 mph94%30.13 "Hg2 mi
5:49 PM57 °FLight rain. Fog.7 mph100%30.13 "Hg2 mi
5:00 PM57 °FLight rain. Fog.7 mph100%30.12 "Hg3 mi
4:00 PM59 °FLight rain. Fog.8 mph94%30.12 "Hg4 mi
3:00 PM59 °FMostly cloudy.10 mph94%30.11 "Hg12 mi
2:00 PM59 °FLight rain. Cloudy.9 mph94%30.12 "Hg10 mi
1:00 PM57 °FLight rain. Fog.6 mph100%30.13 "Hg4 mi
12:00 PM57 °FLight rain. Fog.7 mph94%30.11 "Hg6 mi
11:00 AM57 °FLight rain. Mostly cloudy.8 mph94%30.10 "Hg8 mi
Weather by CustomWeather, © 2015

See weather overviewHow to use our weather pages